Location: Csohesd
(46.2500°N, 22.6167°E)
Time: 04:34:54
(UTC+00:00)

Iridium 4 Rocket - Pass Details

Date: 21 October 2021
Orbit: 586 x 903 km, 86.9° (Epoch: 30 November)

Event Time Altitude Azimuth Distance (km) Brightness Sun altitude
Rises 17:28:43 0° 350° (N) 2,940 6.7 -20.8°
Reaches altitude 10° 17:30:57 10° 344° (NNW) 2,065 6.0 -21.1°
Maximum altitude 17:35:16 44° 273° (W) 956 4.4 -21.9°
Drops below altitude 10° 17:39:56 10° 202° (SSW) 2,231 6.1 -22.7°
Sets 17:42:25 0° 196° (SSW) 3,204 6.8 -23.1°
